Stündliche Wetter Abdrahimovo

Heute, 17 Juni, Donnerstag

Zeit Temperatur Niederschläge Wind Luftdruck Luftfeuchtigkeit
00:00 +20°C° 0.1 mm 3 m/S 740 mmHg 69%
01:00 +19°C° 0.1 mm 2 m/S 739 mmHg 73%
02:00 +19°C° 0 mm 2 m/S 739 mmHg 76%
03:00 +18°C° 0 mm 2 m/S 739 mmHg 79%
04:00 +18°C° 0 mm 2 m/S 739 mmHg 81%
05:00 +19°C° 0.4 mm 2 m/S 738 mmHg 81%
06:00 +20°C° 0.4 mm 3 m/S 738 mmHg 80%
07:00 +21°C° 0.4 mm 3 m/S 738 mmHg 79%
08:00 +22°C° 0.1 mm 3 m/S 738 mmHg 73%
09:00 +25°C° 0.1 mm 3 m/S 738 mmHg 68%
10:00 +27°C° 0 mm 3 m/S 738 mmHg 60%
11:00 +26°C° 1.1 mm 4 m/S 738 mmHg 64%
12:00 +26°C° 1.1 mm 4 m/S 738 mmHg 68%
13:00 +25°C° 1.1 mm 4 m/S 738 mmHg 73%
14:00 +22°C° 0.8 mm 5 m/S 738 mmHg 77%
15:00 +20°C° 0.8 mm 6 m/S 738 mmHg 81%
16:00 +17°C° 0 mm 7 m/S 738 mmHg 84%
17:00 +19°C° 0 mm 6 m/S 739 mmHg 77%
18:00 +19°C° 0 mm 5 m/S 739 mmHg 71%
19:00 +19°C° 0 mm 4 m/S 739 mmHg 64%
20:00 +17°C° 0 mm 5 m/S 740 mmHg 62%
21:00 +17°C° 0 mm 5 m/S 740 mmHg 59%
22:00 +16°C° 0 mm 5 m/S 741 mmHg 57%
23:00 +15°C° 0 mm 5 m/S 741 mmHg 58%

Morgen, 18 Juni, Freitag

Zeit Temperatur Niederschläge Wind Luftdruck Luftfeuchtigkeit
00:00 +14°C° 0 mm 5 m/S 741 mmHg 60%
01:00 +13°C° 0 mm 5 m/S 742 mmHg 62%
02:00 +12°C° 0 mm 4 m/S 742 mmHg 67%
03:00 +11°C° 0 mm 3 m/S 742 mmHg 71%
04:00 +10°C° 0 mm 2 m/S 743 mmHg 76%
05:00 +11°C° 0 mm 3 m/S 743 mmHg 70%
06:00 +12°C° 0 mm 5 m/S 744 mmHg 64%
07:00 +13°C° 0 mm 6 m/S 744 mmHg 58%
08:00 +14°C° 0 mm 6 m/S 745 mmHg 54%
09:00 +15°C° 0 mm 7 m/S 745 mmHg 50%
10:00 +16°C° 0 mm 7 m/S 745 mmHg 45%
11:00 +16°C° 0 mm 7 m/S 745 mmHg 43%
12:00 +17°C° 0 mm 7 m/S 746 mmHg 41%
13:00 +17°C° 0 mm 7 m/S 746 mmHg 38%
14:00 +18°C° 0 mm 7 m/S 746 mmHg 38%
15:00 +18°C° 0 mm 7 m/S 746 mmHg 38%
16:00 +19°C° 0 mm 6 m/S 746 mmHg 38%
17:00 +17°C° 0 mm 6 m/S 747 mmHg 42%
18:00 +16°C° 0 mm 5 m/S 747 mmHg 46%
19:00 +15°C° 0 mm 5 m/S 747 mmHg 50%
20:00 +14°C° 0 mm 4 m/S 747 mmHg 53%
21:00 +12°C° 0 mm 3 m/S 748 mmHg 56%
22:00 +12°C° 0 mm 2 m/S 748 mmHg 59%
23:00 +10°C° 0 mm 2 m/S 748 mmHg 61%

übermorgen, 19 Juni, Samstag

Zeit Temperatur Niederschläge Wind Luftdruck Luftfeuchtigkeit
00:00 +10°C° 0 mm 2 m/S 748 mmHg 64%
01:00 +11°C° 0 mm 1 m/S 749 mmHg 67%
02:00 +10°C° 0 mm 2 m/S 749 mmHg 66%
03:00 +10°C° 0 mm 2 m/S 749 mmHg 65%
04:00 +10°C° 0 mm 2 m/S 749 mmHg 65%
05:00 +11°C° 0 mm 3 m/S 749 mmHg 65%
06:00 +12°C° 0 mm 4 m/S 748 mmHg 65%
07:00 +13°C° 0 mm 4 m/S 748 mmHg 66%
08:00 +13°C° 0.1 mm 5 m/S 748 mmHg 71%
09:00 +13°C° 0.1 mm 6 m/S 748 mmHg 76%
10:00 +13°C° 0.1 mm 6 m/S 748 mmHg 81%
11:00 +13°C° 0.2 mm 6 m/S 747 mmHg 83%
12:00 +13°C° 0.2 mm 6 m/S 747 mmHg 84%
13:00 +13°C° 0.2 mm 6 m/S 747 mmHg 86%
14:00 +14°C° 0 mm 6 m/S 747 mmHg 85%
15:00 +14°C° 0 mm 5 m/S 746 mmHg 84%
16:00 +15°C° 0 mm 4 m/S 745 mmHg 84%
17:00 +16°C° 0.9 mm 3 m/S 745 mmHg 87%
18:00 +17°C° 0.9 mm 3 m/S 744 mmHg 91%
19:00 +17°C° 0.9 mm 2 m/S 744 mmHg 94%
20:00 +17°C° 0.4 mm 2 m/S 744 mmHg 94%
21:00 +17°C° 0.4 mm 2 m/S 743 mmHg 95%
22:00 +17°C° 0.4 mm 3 m/S 743 mmHg 95%
23:00 +18°C° 0.5 mm 4 m/S 743 mmHg 95%

20 Juni, Sonntag

Zeit Temperatur Niederschläge Wind Luftdruck Luftfeuchtigkeit
00:00 +17°C° 0.5 mm 5 m/S 742 mmHg 95%
01:00 +17°C° 0.5 mm 6 m/S 742 mmHg 94%
02:00 +17°C° 0.6 mm 6 m/S 742 mmHg 95%
03:00 +17°C° 0.6 mm 5 m/S 742 mmHg 95%
04:00 +17°C° 0.6 mm 5 m/S 742 mmHg 96%
05:00 +17°C° 0.2 mm 5 m/S 742 mmHg 95%
06:00 +17°C° 0.2 mm 6 m/S 742 mmHg 94%
07:00 +19°C° 0.2 mm 6 m/S 742 mmHg 94%
08:00 +20°C° 0.1 mm 6 m/S 742 mmHg 86%
09:00 +21°C° 0.1 mm 7 m/S 742 mmHg 78%
10:00 +23°C° 0.1 mm 7 m/S 742 mmHg 70%
11:00 +23°C° 0 mm 8 m/S 742 mmHg 63%
12:00 +24°C° 0 mm 8 m/S 742 mmHg 55%
13:00 +24°C° 0 mm 9 m/S 742 mmHg 48%
14:00 +23°C° 0 mm 9 m/S 742 mmHg 49%
15:00 +23°C° 0 mm 8 m/S 743 mmHg 50%
16:00 +22°C° 0 mm 8 m/S 743 mmHg 51%
17:00 +21°C° 0 mm 8 m/S 744 mmHg 51%
18:00 +18°C° 0 mm 7 m/S 744 mmHg 51%
19:00 +17°C° 0 mm 7 m/S 745 mmHg 52%
20:00 +16°C° 0 mm 6 m/S 745 mmHg 51%
21:00 +14°C° 0 mm 6 m/S 745 mmHg 51%
22:00 +13°C° 0 mm 5 m/S 746 mmHg 51%
23:00 +12°C° 0 mm 4 m/S 746 mmHg 55%

21 Juni, Montag

Zeit Temperatur Niederschläge Wind Luftdruck Luftfeuchtigkeit
00:00 +11°C° 0 mm 3 m/S 746 mmHg 58%
01:00 +10°C° 0 mm 2 m/S 747 mmHg 62%
02:00 +9°C° 0 mm 2 m/S 747 mmHg 64%
03:00 +9°C° 0 mm 2 m/S 747 mmHg 66%
04:00 +9°C° 0 mm 1 m/S 747 mmHg 69%
05:00 +10°C° 0 mm 2 m/S 748 mmHg 65%
06:00 +12°C° 0 mm 2 m/S 748 mmHg 61%
07:00 +14°C° 0 mm 2 m/S 749 mmHg 57%
08:00 +14°C° 0 mm 3 m/S 748 mmHg 53%
09:00 +17°C° 0 mm 4 m/S 748 mmHg 49%
10:00 +18°C° 0 mm 4 m/S 748 mmHg 45%
11:00 +19°C° 0 mm 4 m/S 748 mmHg 43%
12:00 +20°C° 0 mm 5 m/S 748 mmHg 42%
13:00 +21°C° 0 mm 5 m/S 747 mmHg 41%
14:00 +21°C° 0 mm 5 m/S 747 mmHg 42%
15:00 +22°C° 0 mm 4 m/S 747 mmHg 44%
16:00 +22°C° 0 mm 4 m/S 746 mmHg 45%
17:00 +22°C° 0 mm 4 m/S 746 mmHg 52%
18:00 +21°C° 0 mm 3 m/S 746 mmHg 58%
19:00 +20°C° 0 mm 3 m/S 745 mmHg 65%
20:00 +19°C° 0 mm 3 m/S 745 mmHg 70%
21:00 +17°C° 0 mm 3 m/S 745 mmHg 76%
22:00 +16°C° 0 mm 3 m/S 745 mmHg 81%
23:00 +16°C° 0.1 mm 3 m/S 744 mmHg 84%

22 Juni, Dienstag

Zeit Temperatur Niederschläge Wind Luftdruck Luftfeuchtigkeit
00:00 +16°C° 0.1 mm 3 m/S 744 mmHg 86%
01:00 +16°C° 0.1 mm 3 m/S 743 mmHg 89%
02:00 +14°C° 0.1 mm 3 m/S 743 mmHg 91%
03:00 +14°C° 0.1 mm 3 m/S 743 mmHg 94%
04:00 +15°C° 0.1 mm 2 m/S 743 mmHg 96%
05:00 +16°C° 0 mm 2 m/S 743 mmHg 94%
06:00 +17°C° 0 mm 3 m/S 743 mmHg 91%
07:00 +18°C° 0 mm 3 m/S 743 mmHg 88%
08:00 +19°C° 0 mm 3 m/S 743 mmHg 83%
09:00 +20°C° 0 mm 3 m/S 743 mmHg 77%
10:00 +21°C° 0 mm 3 m/S 743 mmHg 72%
11:00 +21°C° 0.1 mm 3 m/S 743 mmHg 69%
12:00 +22°C° 0.1 mm 4 m/S 743 mmHg 67%
13:00 +23°C° 0.1 mm 4 m/S 743 mmHg 64%
14:00 +22°C° 0.1 mm 4 m/S 744 mmHg 64%
15:00 +22°C° 0.1 mm 4 m/S 744 mmHg 64%
16:00 +22°C° 0.1 mm 5 m/S 744 mmHg 64%
17:00 +21°C° 0 mm 4 m/S 744 mmHg 64%
18:00 +21°C° 0 mm 3 m/S 745 mmHg 64%
19:00 +20°C° 0 mm 2 m/S 745 mmHg 65%
20:00 +18°C° 0 mm 2 m/S 745 mmHg 63%
21:00 +16°C° 0 mm 2 m/S 746 mmHg 62%
22:00 +14°C° 0 mm 2 m/S 746 mmHg 61%
23:00 +13°C° 0 mm 2 m/S 747 mmHg 61%
Mehr zeigen

Wir brauchen deine Erlaubnis

Meteoprog und unser Service Anbieter werden persönliche Daten aufbewahren, so wie Cookies, Geräte Bezeichnung oder ähnliche Technologien von deinem Gerät und Prozess, so wie Persönliche Daten Inhalte und Werbungen, genauso wie social Media und den Verkehr zu analysieren.

  • Aufbewahrung und/oder Zugang zu deiner Geräte Informationen.

    Cookies, Geräte Bezeichnung oder andere Informationen, können aufbewahrt oder Zugang zu deinem Gerät erhalten, für den Grund, der oben angegeben wird.

  • Personalisierte Werbung und Inhalte, Messungen, Einblick in das Publikum und Produkt Entwicklung.

    Werbungen und Inhalte können personalisiert werden, basierend auf ein Profil. Mehr Daten können besser personalisierte Werbungen und Inhalte hinzufügen. Werbung und Inhalte können gezeigt und gemessen werden. Einblicke über das Publikum, welche die Werbung gesehen haben und den Inhalt, können abgeleitet werden. So wie Daten können genutzt werden, um es zu verbessern oder die Benutzer Erfahrung zu verbessern das System und die Software.

Wenn du “Ich stimme zu” klickst, erlaubst du uns, die Cookies zu benutzen die Geräte Bezeichnung, den Web oder ähnliche Technologien zu benutzen. Deine Settings, können in deinem Gerät bei deinem Browser geändert werden.

Für den bestimmten Zweck, berechtigten Interessen beruhen darauf, mehr als auf den Inhalt. Du kannst mehr darüber in unseren Privaten und Cookie Politik lesen.